TimeCDT,TemperatureF,Dew PointF,Humidity,Sea Level PressureIn,VisibilityMPH,Wind Direction,Wind SpeedMPH,Gust SpeedMPH,PrecipitationIn,Events,Conditions,WindDirDegrees,DateUTC
12:51 AM,72.0,64.9,78,29.99,10.0,South,11.5,-,N/A,,Partly Cloudy,170,2013-05-08 05:51:00
1:51 AM,71.1,64.9,81,29.97,10.0,SSE,9.2,-,N/A,,Partly Cloudy,160,2013-05-08 06:51:00
2:40 AM,71.6,64.4,78,29.97,10.0,SSE,5.8,-,N/A,,Mostly Cloudy,160,2013-05-08 07:40:00
2:51 AM,71.1,64.9,81,29.96,10.0,SSE,5.8,-,N/A,,Mostly Cloudy,150,2013-05-08 07:51:00
3:21 AM,71.6,64.4,78,29.95,10.0,SSE,8.1,-,N/A,,Scattered Clouds,150,2013-05-08 08:21:00
3:51 AM,70.0,64.9,84,29.94,10.0,SE,8.1,-,N/A,,Partly Cloudy,140,2013-05-08 08:51:00
4:51 AM,70.0,64.9,84,29.95,10.0,SSE,6.9,-,N/A,,Partly Cloudy,160,2013-05-08 09:51:00
5:51 AM,68.0,64.0,87,29.96,10.0,SSE,5.8,-,N/A,,Partly Cloudy,150,2013-05-08 10:51:00
6:51 AM,69.1,64.9,87,29.98,10.0,SE,8.1,-,N/A,,Partly Cloudy,140,2013-05-08 11:51:00
7:49 AM,73.4,66.2,78,30.00,10.0,SSE,10.4,-,N/A,,Mostly Cloudy,160,2013-05-08 12:49:00
7:51 AM,73.0,66.9,81,29.99,10.0,SSE,11.5,-,N/A,,Mostly Cloudy,160,2013-05-08 12:51:00
8:15 AM,73.4,66.2,78,30.00,10.0,SSE,10.4,-,N/A,,Scattered Clouds,160,2013-05-08 13:15:00
8:51 AM,75.9,66.9,74,30.02,10.0,SSE,13.8,-,N/A,,Scattered Clouds,160,2013-05-08 13:51:00
9:51 AM,79.0,63.0,58,30.01,10.0,SSE,15.0,-,N/A,,Scattered Clouds,160,2013-05-08 14:51:00
10:51 AM,82.9,62.1,49,30.02,10.0,SSE,19.6,25.3,N/A,,Partly Cloudy,150,2013-05-08 15:51:00
11:51 AM,84.9,64.0,49,30.01,10.0,SSE,19.6,28.8,N/A,,Scattered Clouds,150,2013-05-08 16:51:00
12:51 PM,84.9,64.0,49,29.99,10.0,SE,18.4,27.6,N/A,,Scattered Clouds,140,2013-05-08 17:51:00
1:51 PM,87.1,64.0,46,29.97,10.0,SSE,17.3,27.6,N/A,,Partly Cloudy,160,2013-05-08 18:51:00
2:51 PM,86.0,64.0,48,29.95,10.0,SSE,21.9,28.8,N/A,,Scattered Clouds,150,2013-05-08 19:51:00
3:51 PM,84.9,64.9,51,29.93,10.0,SE,23.0,32.2,N/A,,Scattered Clouds,140,2013-05-08 20:51:00
4:51 PM,84.9,66.0,53,29.93,10.0,SE,25.3,31.1,N/A,,Scattered Clouds,130,2013-05-08 21:51:00
5:51 PM,82.0,66.0,58,29.91,10.0,SE,26.5,33.4,N/A,,Scattered Clouds,130,2013-05-08 22:51:00
6:45 PM,78.8,66.2,65,29.91,10.0,SE,26.5,-,N/A,,Mostly Cloudy,140,2013-05-08 23:45:00
6:51 PM,79.0,66.0,64,29.92,10.0,SE,26.5,-,N/A,,Mostly Cloudy,130,2013-05-08 23:51:00
7:04 PM,78.8,66.2,65,29.92,10.0,SE,24.2,-,N/A,,Scattered Clouds,130,2013-05-09 00:04:00
7:51 PM,78.1,66.9,68,29.92,10.0,SE,24.2,32.2,N/A,,Scattered Clouds,140,2013-05-09 00:51:00
8:51 PM,75.9,68.0,76,29.94,10.0,SE,23.0,-,N/A,,Scattered Clouds,140,2013-05-09 01:51:00
9:48 PM,75.2,68.0,78,29.94,10.0,SE,20.7,-,N/A,,Mostly Cloudy,140,2013-05-09 02:48:00
9:51 PM,75.9,69.1,79,29.94,10.0,SE,21.9,-,N/A,,Mostly Cloudy,140,2013-05-09 02:51:00
10:51 PM,75.9,69.1,79,29.95,10.0,SSE,18.4,-,N/A,,Overcast,150,2013-05-09 03:51:00
11:51 PM,75.9,69.1,79,29.95,10.0,SSE,17.3,-,N/A,,Overcast,150,2013-05-09 04:51:00